USA 342

Last updated on Wed Aug 12 2026 00:03:05 GMT+0000 (Coordinated Universal Time)

1 55263U 23008A 26221.22645830 .00000000 00000+0 00000+0 0 9995 2 55263 0.0040 106.2202 0000357 340.6604 336.3091 1.00270738 13049
UTC large
Height (km)
Speed (km/s)
/
Latitude / Longitude
Inclination (degrees)
Orbital Period (minutes)
Azimuth
Elevation
Range (km)
Doppler Factor

Next 0 passes for location: London (51.5072 / 0.1276)

No passes found over London.
USA 342